| time (UTC) | temp F | wind direction | speed MPH | gust MPH | rain 1hr in | rain 24hr in | rain mn in | humidity % | barometer mb |
| 20260507235806 | 85 | 270 | 3.0 | 5.0 | 0.00 | 0.00 | 0.00 | 45 | 1014.6 |
| 20260507234806 | 85 | 116 | 3.0 | 7.0 | 0.00 | 0.00 | 0.00 | 45 | 1014.5 |
| 20260507233807 | 85 | 278 | 4.0 | 8.0 | 0.00 | 0.00 | 0.00 | 46 | 1014.5 |
| 20260507232801 | 85 | 297 | 4.0 | 7.0 | 0.00 | 0.00 | 0.00 | 45 | 1014.7 |
| 20260507231803 | 85 | 260 | 2.0 | 5.0 | 0.00 | 0.00 | 0.00 | 45 | 1014.8 |
| 20260507230805 | 85 | 174 | 3.0 | 6.0 | 0.00 | 0.00 | 0.00 | 47 | 1014.9 |
| 20260507225838 | 84 | 358 | 3.0 | 6.0 | 0.00 | 0.00 | 0.00 | 45 | 1015.0 |
| 20260507224816 | 84 | 81 | 0.0 | 7.0 | 0.00 | 0.00 | 0.00 | 48 | 1015.1 |
| 20260507223814 | 84 | 254 | 3.0 | 8.0 | 0.00 | 0.00 | 0.00 | 47 | 1015.3 |
| 20260507222809 | 83 | 260 | 2.0 | 10.0 | 0.00 | 0.00 | 0.00 | 48 | 1015.4 |
| 20260507221812 | 82 | 274 | 1.0 | 8.0 | 0.00 | 0.00 | 0.00 | 50 | 1015.8 |
| 20260507220811 | 82 | 180 | 2.0 | 8.0 | 0.00 | 0.00 | 0.00 | 50 | 1016.0 |
| 20260507215807 | 81 | 182 | 2.0 | 6.0 | 0.00 | 0.00 | 0.00 | 50 | 1016.1 |
| 20260507214828 | 81 | 343 | 4.0 | 6.0 | 0.00 | 0.00 | 0.00 | 52 | 1016.4 |
| 20260507213809 | 81 | 340 | 4.0 | 6.0 | 0.00 | 0.00 | 0.00 | 51 | 1016.4 |
| 20260507212806 | 80 | 283 | 2.0 | 5.0 | 0.00 | 0.00 | 0.00 | 53 | 1016.5 |
| 20260507211808 | 79 | 301 | 2.0 | 8.0 | 0.00 | 0.00 | 0.00 | 53 | 1016.7 |
| 20260507210836 | 79 | 27 | 3.0 | 7.0 | 0.00 | 0.00 | 0.00 | 54 | 1016.9 |
| 20260507205812 | 78 | 35 | 3.0 | 6.0 | 0.00 | 0.00 | 0.00 | 55 | 1017.0 |
| 20260507204835 | 78 | 303 | 3.0 | 5.0 | 0.00 | 0.00 | 0.00 | 56 | 1017.1 |
| 20260507203811 | 78 | 270 | 4.0 | 9.0 | 0.00 | 0.00 | 0.00 | 55 | 1017.2 |
| 20260507202811 | 78 | 45 | 3.0 | 6.0 | 0.00 | 0.00 | 0.00 | 56 | 1017.4 |
| 20260507201832 | 77 | 289 | 4.0 | 8.0 | 0.00 | 0.00 | 0.00 | 55 | 1017.5 |
| 20260507200812 | 77 | 1 | 3.0 | 7.0 | 0.00 | 0.00 | 0.00 | 56 | 1017.5 |
| 20260507195813 | 76 | 291 | 2.0 | 6.0 | 0.00 | 0.00 | 0.00 | 56 | 1017.6 |
| 20260507194814 | 77 | 156 | 3.0 | 8.0 | 0.00 | 0.00 | 0.00 | 57 | 1017.8 |
| 20260507193816 | 76 | 260 | 4.0 | 8.0 | 0.00 | 0.00 | 0.00 | 58 | 1017.9 |
| 20260507192817 | 75 | 326 | 4.0 | 8.0 | 0.00 | 0.00 | 0.00 | 59 | 1018.0 |
| 20260507191816 | 75 | 178 | 2.0 | 6.0 | 0.00 | 0.00 | 0.00 | 61 | 1018.0 |
| 20260507190839 | 75 | 226 | 4.0 | 8.0 | 0.00 | 0.00 | 0.00 | 59 | 1018.2 |
| 20260507185816 | 75 | 270 | 6.0 | 10.0 | 0.00 | 0.00 | 0.00 | 60 | 1018.2 |
| 20260507184814 | 74 | 237 | 2.0 | 8.0 | 0.00 | 0.00 | 0.00 | 61 | 1018.3 |
| 20260507183818 | 74 | 236 | 2.0 | 8.0 | 0.00 | 0.00 | 0.00 | 62 | 1018.3 |
| 20260507182836 | 74 | 309 | 2.0 | 6.0 | 0.00 | 0.00 | 0.00 | 61 | 1018.5 |
| 20260507181816 | 74 | 276 | 3.0 | 6.0 | 0.00 | 0.00 | 0.00 | 62 | 1018.5 |
| 20260507180814 | 72 | 226 | 1.0 | 6.0 | 0.00 | 0.00 | 0.00 | 63 | 1018.4 |
| 20260507175831 | 72 | 270 | 3.0 | 6.0 | 0.00 | 0.00 | 0.00 | 63 | 1018.5 |
| 20260507174813 | 72 | 185 | 2.0 | 9.0 | 0.00 | 0.00 | 0.00 | 65 | 1018.5 |
| 20260507173813 | 71 | 297 | 3.0 | 5.0 | 0.00 | 0.00 | 0.00 | 64 | 1018.6 |
| 20260507172831 | 71 | 249 | 1.0 | 8.0 | 0.00 | 0.00 | 0.00 | 63 | 1018.7 |
| 20260507171832 | 71 | 166 | 3.0 | 7.0 | 0.00 | 0.00 | 0.00 | 65 | 1018.7 |
| 20260507170816 | 70 | 200 | 3.0 | 7.0 | 0.00 | 0.00 | 0.00 | 68 | 1018.7 |
| 20260507165811 | 70 | 176 | 2.0 | 3.0 | 0.00 | 0.00 | 0.00 | 69 | 1018.7 |
| 20260507164815 | 69 | 43 | 1.0 | 4.0 | 0.00 | 0.00 | 0.00 | 71 | 1018.6 |
| 20260507163815 | 68 | 107 | 2.0 | 4.0 | 0.00 | 0.00 | 0.00 | 70 | 1018.7 |
| 20260507162813 | 68 | 265 | 1.0 | 6.0 | 0.00 | 0.00 | 0.00 | 70 | 1018.7 |
| 20260507161813 | 66 | 180 | 1.0 | 4.0 | 0.00 | 0.00 | 0.00 | 73 | 1018.8 |
| 20260507160816 | 66 | 137 | 4.0 | 5.0 | 0.00 | 0.00 | 0.00 | 73 | 1018.8 |
| 20260507155813 | 66 | 182 | 4.0 | 6.0 | 0.00 | 0.00 | 0.00 | 73 | 1018.8 |
| 20260507154831 | 65 | 204 | 2.0 | 6.0 | 0.00 | 0.00 | 0.00 | 74 | 1018.9 |
| 20260507153813 | 64 | 137 | 1.0 | 7.0 | 0.00 | 0.00 | 0.00 | 75 | 1018.9 |
| 20260507152810 | 64 | 189 | 3.0 | 6.0 | 0.00 | 0.00 | 0.00 | 76 | 1018.8 |
| 20260507151809 | 63 | 115 | 0.0 | 6.0 | 0.00 | 0.00 | 0.00 | 78 | 1018.9 |
| 20260507150811 | 62 | 196 | 3.0 | 6.0 | 0.00 | 0.00 | 0.00 | 80 | 1018.9 |
| 20260507145808 | 61 | 199 | 2.0 | 3.0 | 0.00 | 0.00 | 0.00 | 82 | 1018.9 |
| 20260507144811 | 60 | 197 | 1.0 | 4.0 | 0.00 | 0.00 | 0.00 | 85 | 1018.9 |
| 20260507143810 | 59 | 163 | 2.0 | 6.0 | 0.00 | 0.00 | 0.00 | 87 | 1018.9 |
| 20260507142828 | 58 | 108 | 3.0 | 4.0 | 0.00 | 0.00 | 0.00 | 89 | 1018.8 |
| 20260507141812 | 57 | 180 | 2.0 | 6.0 | 0.00 | 0.00 | 0.00 | 89 | 1018.8 |
| 20260507140836 | 56 | 176 | 2.0 | 7.0 | 0.00 | 0.00 | 0.00 | 89 | 1018.7 |
| 20260507135810 | 56 | 205 | 2.0 | 8.0 | 0.00 | 0.00 | 0.00 | 89 | 1018.7 |
| 20260507134834 | 56 | 134 | 2.0 | 5.0 | 0.00 | 0.00 | 0.00 | 90 | 1018.5 |
| 20260507133818 | 55 | 103 | 3.0 | 5.0 | 0.00 | 0.00 | 0.00 | 90 | 1018.4 |
| 20260507132817 | 55 | 143 | 0.0 | 2.0 | 0.00 | 0.00 | 0.00 | 89 | 1018.3 |
| 20260507131759 | 55 | 126 | 0.0 | 0.0 | 0.00 | 0.00 | 0.00 | 89 | 1018.2 |
| 20260507130802 | 55 | 145 | 0.0 | 0.0 | 0.00 | 0.00 | 0.00 | 89 | 1018.1 |
| 20260507125803 | 55 | 118 | 0.0 | 0.0 | 0.00 | 0.00 | 0.00 | 89 | 1018.1 |
| 20260507124805 | 55 | 118 | 0.0 | 0.0 | 0.00 | 0.00 | 0.00 | 89 | 1018.2 |
| 20260507123828 | 56 | 149 | 0.0 | 0.0 | 0.00 | 0.00 | 0.00 | 88 | 1018.2 |
| 20260507122807 | 56 | 146 | 0.0 | 2.0 | 0.00 | 0.00 | 0.00 | 88 | 1018.1 |
| 20260507121829 | 56 | 131 | 1.0 | 3.0 | 0.00 | 0.00 | 0.00 | 88 | 1018.0 |
| 20260507120812 | 56 | 131 | 1.0 | 3.0 | 0.00 | 0.00 | 0.00 | 88 | 1018.0 |
| 20260507115813 | 56 | 140 | 0.0 | 2.0 | 0.00 | 0.00 | 0.00 | 87 | 1018.1 |
| 20260507114818 | 56 | 137 | 1.0 | 4.0 | 0.00 | 0.00 | 0.00 | 87 | 1018.2 |
| 20260507113801 | 57 | 141 | 2.0 | 5.0 | 0.00 | 0.00 | 0.00 | 87 | 1018.1 |
| 20260507112802 | 57 | 112 | 2.0 | 5.0 | 0.00 | 0.00 | 0.00 | 87 | 1018.1 |
| 20260507111805 | 57 | 117 | 3.0 | 5.0 | 0.00 | 0.00 | 0.00 | 87 | 1018.1 |
| 20260507110809 | 57 | 128 | 1.0 | 5.0 | 0.00 | 0.00 | 0.00 | 87 | 1018.1 |
| 20260507105831 | 57 | 175 | 2.0 | 5.0 | 0.00 | 0.00 | 0.00 | 87 | 1018.0 |
| 20260507104833 | 57 | 116 | 1.0 | 3.0 | 0.00 | 0.00 | 0.00 | 86 | 1018.0 |
| 20260507103814 | 57 | 132 | 0.0 | 4.0 | 0.00 | 0.00 | 0.00 | 86 | 1018.0 |
| 20260507102813 | 57 | 133 | 2.0 | 5.0 | 0.00 | 0.00 | 0.00 | 86 | 1018.0 |
| 20260507101818 | 57 | 138 | 1.0 | 4.0 | 0.00 | 0.00 | 0.00 | 86 | 1018.0 |
| 20260507100802 | 57 | 120 | 0.0 | 0.0 | 0.00 | 0.00 | 0.00 | 86 | 1018.1 |
| 20260507095801 | 58 | 137 | 0.0 | 0.0 | 0.00 | 0.00 | 0.00 | 86 | 1018.1 |
| 20260507094802 | 58 | 118 | 0.0 | 4.0 | 0.00 | 0.00 | 0.00 | 86 | 1018.1 |
| 20260507093801 | 58 | 138 | 1.0 | 3.0 | 0.00 | 0.00 | 0.00 | 86 | 1018.2 |
| 20260507092821 | 58 | 147 | 1.0 | 4.0 | 0.00 | 0.00 | 0.00 | 86 | 1018.1 |
| 20260507091800 | 59 | 151 | 2.0 | 4.0 | 0.00 | 0.00 | 0.00 | 86 | 1018.2 |
| 20260507090839 | 59 | 128 | 0.0 | 3.0 | 0.00 | 0.00 | 0.00 | 86 | 1018.3 |
| 20260507085814 | 59 | 150 | 2.0 | 5.0 | 0.00 | 0.00 | 0.00 | 85 | 1018.2 |
| 20260507084836 | 60 | 122 | 2.0 | 4.0 | 0.00 | 0.00 | 0.00 | 85 | 1018.3 |
| 20260507083820 | 60 | 143 | 1.0 | 5.0 | 0.00 | 0.00 | 0.00 | 84 | 1018.2 |
| 20260507082813 | 60 | 150 | 2.0 | 5.0 | 0.00 | 0.00 | 0.00 | 84 | 1018.3 |
| 20260507081815 | 60 | 165 | 1.0 | 7.0 | 0.00 | 0.00 | 0.00 | 84 | 1018.2 |
| 20260507080814 | 60 | 150 | 2.0 | 6.0 | 0.00 | 0.00 | 0.00 | 84 | 1018.2 |
| 20260507075817 | 61 | 149 | 3.0 | 7.0 | 0.00 | 0.00 | 0.00 | 84 | 1018.1 |
| 20260507074823 | 61 | 145 | 1.0 | 4.0 | 0.00 | 0.00 | 0.00 | 83 | 1018.2 |
| 20260507073807 | 61 | 138 | 3.0 | 7.0 | 0.00 | 0.00 | 0.00 | 83 | 1018.3 |
| 20260507072811 | 62 | 142 | 3.0 | 7.0 | 0.00 | 0.00 | 0.00 | 83 | 1018.2 |
| 20260507071814 | 62 | 114 | 3.0 | 5.0 | 0.00 | 0.00 | 0.00 | 82 | 1018.1 |
| 20260507070807 | 62 | 118 | 3.0 | 5.0 | 0.00 | 0.00 | 0.00 | 81 | 1018.2 |
| 20260507065811 | 62 | 146 | 2.0 | 5.0 | 0.00 | 0.00 | 0.00 | 80 | 1018.3 |
| 20260507064822 | 63 | 122 | 2.0 | 5.0 | 0.00 | 0.00 | 0.00 | 79 | 1018.1 |
| 20260507063804 | 63 | 132 | 3.0 | 5.0 | 0.00 | 0.00 | 0.00 | 79 | 1018.1 |
| 20260507062801 | 63 | 114 | 4.0 | 6.0 | 0.00 | 0.00 | 0.00 | 79 | 1018.1 |
| 20260507061841 | 64 | 126 | 2.0 | 5.0 | 0.00 | 0.00 | 0.00 | 79 | 1018.0 |
| 20260507060819 | 64 | 134 | 2.0 | 3.0 | 0.00 | 0.00 | 0.00 | 78 | 1018.0 |
| 20260507055814 | 64 | 112 | 1.0 | 4.0 | 0.00 | 0.00 | 0.00 | 78 | 1017.9 |
| 20260507054832 | 64 | 127 | 2.0 | 3.0 | 0.00 | 0.00 | 0.00 | 77 | 1017.8 |
| 20260507053806 | 65 | 183 | 2.0 | 6.0 | 0.00 | 0.00 | 0.00 | 76 | 1017.9 |
| 20260507052819 | 65 | 172 | 1.0 | 4.0 | 0.00 | 0.00 | 0.00 | 76 | 1017.9 |
| 20260507051802 | 66 | 171 | 2.0 | 4.0 | 0.00 | 0.00 | 0.00 | 75 | 1017.9 |
| 20260507050801 | 66 | 236 | 1.0 | 8.0 | 0.00 | 0.00 | 0.00 | 75 | 1017.9 |
| 20260507045817 | 66 | 171 | 0.0 | 8.0 | 0.00 | 0.00 | 0.00 | 75 | 1017.8 |
| 20260507044818 | 67 | 203 | 2.0 | 7.0 | 0.00 | 0.00 | 0.00 | 74 | 1017.7 |
| 20260507043816 | 67 | 169 | 2.0 | 9.0 | 0.00 | 0.00 | 0.00 | 73 | 1017.6 |
| 20260507042812 | 67 | 202 | 4.0 | 8.0 | 0.00 | 0.00 | 0.00 | 73 | 1017.6 |
| 20260507041811 | 67 | 205 | 1.0 | 3.0 | 0.00 | 0.00 | 0.00 | 72 | 1017.5 |
| 20260507040831 | 68 | 120 | 0.0 | 0.0 | 0.00 | 0.00 | 0.00 | 71 | 1017.2 |
| 20260507035808 | 68 | 120 | 0.0 | 0.0 | 0.00 | 0.00 | 0.00 | 70 | 1017.1 |
| 20260507034829 | 69 | 121 | 0.0 | 4.0 | 0.00 | 0.00 | 0.00 | 69 | 1017.0 |
| 20260507033829 | 69 | 117 | 0.0 | 0.0 | 0.00 | 0.00 | 0.00 | 68 | 1017.0 |
| 20260507032824 | 70 | 110 | 0.0 | 0.0 | 0.00 | 0.00 | 0.00 | 67 | 1016.9 |
| 20260507031823 | 70 | 93 | 0.0 | 0.0 | 0.00 | 0.00 | 0.00 | 65 | 1016.8 |
| 20260507030819 | 71 | 306 | 0.0 | 0.0 | 0.00 | 0.00 | 0.00 | 64 | 1016.9 |
| 20260507025819 | 72 | 306 | 0.0 | 0.0 | 0.00 | 0.00 | 0.00 | 61 | 1016.7 |
| 20260507024804 | 73 | 306 | 0.0 | 0.0 | 0.00 | 0.00 | 0.00 | 60 | 1016.8 |
| 20260507023807 | 73 | 306 | 0.0 | 0.0 | 0.00 | 0.00 | 0.00 | 58 | 1016.7 |
| 20260507022807 | 74 | 306 | 0.0 | 0.0 | 0.00 | 0.00 | 0.00 | 57 | 1016.7 |
| 20260507021807 | 74 | 306 | 0.0 | 3.0 | 0.00 | 0.00 | 0.00 | 56 | 1016.7 |
| 20260507020807 | 75 | 289 | 1.0 | 3.0 | 0.00 | 0.00 | 0.00 | 56 | 1016.8 |
| 20260507015808 | 75 | 340 | 0.0 | 1.0 | 0.00 | 0.00 | 0.00 | 56 | 1016.7 |
| 20260507014811 | 75 | 341 | 1.0 | 3.0 | 0.00 | 0.00 | 0.00 | 55 | 1016.8 |
| 20260507013811 | 76 | 295 | 2.0 | 4.0 | 0.00 | 0.00 | 0.00 | 55 | 1016.8 |
| 20260507012809 | 76 | 303 | 1.0 | 4.0 | 0.00 | 0.00 | 0.00 | 55 | 1016.8 |
| 20260507011813 | 76 | 260 | 0.0 | 4.0 | 0.00 | 0.00 | 0.00 | 54 | 1016.8 |
| 20260507010815 | 76 | 339 | 3.0 | 5.0 | 0.00 | 0.00 | 0.00 | 55 | 1016.8 |
| 20260507005841 | 76 | 253 | 2.0 | 5.0 | 0.00 | 0.00 | 0.00 | 54 | 1016.8 |
| 20260507004801 | 76 | 8 | 1.0 | 4.0 | 0.00 | 0.00 | 0.00 | 56 | 1016.9 |
| 20260507003803 | 75 | 265 | 2.0 | 9.0 | 0.00 | 0.00 | 0.00 | 54 | 1017.0 |
| 20260507002819 | 75 | 302 | 0.0 | 6.0 | 0.00 | 0.00 | 0.00 | 56 | 1016.9 |
| 20260507001804 | 75 | 357 | 3.0 | 10.0 | 0.00 | 0.00 | 0.00 | 57 | 1016.9 |
| 20260507000807 | 75 | 205 | 3.0 | 8.0 | 0.00 | 0.00 | 0.00 | 56 | 1017.1 |